Terminal Aerodrome Forecast
Issued by NWS Pittsburgh, PA

Current Version | Previous Version | Text Only | Print | Product List | Glossary Off
Versions: 1 2 3 4 5 6 7 8 9 10 11 12 13 14 15 16 17 18 19 20 21 22 23 24 25 26 27 28 29 30 31 32

284
FTUS41 KPBZ 232339
TAFPIT
TAF
KPIT 232339Z 2400/2506 17003KT P6SM BKN060
     FM240500 00000KT 4SM BR SCT250
     FM241600 19003KT P6SM SCT045=

USA.gov is the U.S. government's official web portal to all federal, state and local government web resources and services.